BAW150 EBCI-EGLC

Flight info

Callsign BAW150
Flight time 0h 50m
Altitude 20000
Route CIV DCT KONAN
Aircraft E190/M-SDE3GILORVW/S

Departure

Time 2026-04-28 14:34
Airport Brussels South Charleroi Airport (EBCI)

Arrival

Time 2026-04-28 15:24
Airport London City Airport (EGLC)
Time Latitude Longitude Altitude Speed Heading
2026-04-28 14:11 50.46839 4.46987 584 ft 0 kts 335°
2026-04-28 14:20 50.46823 4.46998 584 ft 4 kts 335°
2026-04-28 14:20 50.46800 4.47014 583 ft 4 kts 316°
2026-04-28 14:21 50.46794 4.47043 584 ft 4 kts 250°
2026-04-28 14:21 50.46804 4.47080 584 ft 2 kts 245°
2026-04-28 14:21 50.46804 4.47081 584 ft 0 kts 245°
2026-04-28 14:25 50.46803 4.47078 584 ft 1 kts 245°
2026-04-28 14:25 50.46795 4.47051 584 ft 4 kts 245°
2026-04-28 14:25 50.46779 4.46993 584 ft 7 kts 245°
2026-04-28 14:26 50.46755 4.46912 585 ft 9 kts 245°
2026-04-28 14:26 50.46729 4.46819 586 ft 10 kts 245°
2026-04-28 14:26 50.46679 4.46775 588 ft 8 kts 171°
2026-04-28 14:26 50.46640 4.46799 590 ft 3 kts 162°
2026-04-28 14:27 50.46623 4.46798 590 ft 2 kts 185°
2026-04-28 14:27 50.46604 4.46787 590 ft 4 kts 213°
2026-04-28 14:27 50.46589 4.46744 590 ft 6 kts 246°
2026-04-28 14:27 50.46575 4.46693 590 ft 9 kts 246°
2026-04-28 14:28 50.46536 4.46561 589 ft 13 kts 244°
2026-04-28 14:28 50.46496 4.46420 587 ft 15 kts 245°
2026-04-28 14:29 50.46457 4.46289 589 ft 11 kts 245°
2026-04-28 14:29 50.46420 4.46162 590 ft 14 kts 246°
2026-04-28 14:29 50.46376 4.46009 594 ft 15 kts 245°
2026-04-28 14:29 50.46331 4.45853 596 ft 17 kts 245°
2026-04-28 14:30 50.46277 4.45668 597 ft 20 kts 245°
2026-04-28 14:30 50.46224 4.45488 598 ft 15 kts 246°
2026-04-28 14:30 50.46178 4.45329 598 ft 17 kts 246°
2026-04-28 14:30 50.46126 4.45149 596 ft 20 kts 245°
2026-04-28 14:31 50.46065 4.44938 596 ft 22 kts 246°
2026-04-28 14:31 50.45999 4.44710 596 ft 24 kts 245°
2026-04-28 14:31 50.45931 4.44485 599 ft 17 kts 242°
2026-04-28 14:31 50.45864 4.44337 598 ft 18 kts 232°
2026-04-28 14:32 50.45782 4.44174 595 ft 21 kts 231°
2026-04-28 14:32 50.45712 4.44036 593 ft 15 kts 231°
2026-04-28 14:32 50.45648 4.43978 592 ft 9 kts 166°
2026-04-28 14:32 50.45632 4.44003 592 ft 0 kts 122°
2026-04-28 14:33 50.45627 4.44023 592 ft 3 kts 106°
2026-04-28 14:33 50.45628 4.44045 593 ft 6 kts 85°
2026-04-28 14:33 50.45640 4.44102 593 ft 11 kts 67°
2026-04-28 14:34 50.46004 4.45351 592 ft 132 kts 63°
2026-04-28 14:34 50.46478 4.46808 1047 ft 167 kts 61°
2026-04-28 14:34 50.47029 4.48550 1961 ft 182 kts 64°
2026-04-28 14:35 50.47608 4.50405 2778 ft 194 kts 58°
2026-04-28 14:35 50.48437 4.52123 3600 ft 203 kts 49°
2026-04-28 14:35 50.49419 4.53777 4352 ft 212 kts 52°
2026-04-28 14:35 50.50480 4.55587 4872 ft 242 kts 50°
2026-04-28 14:36 50.51696 4.57559 5593 ft 256 kts 49°
2026-04-28 14:36 50.53060 4.59439 6510 ft 267 kts 36°
2026-04-28 14:36 50.54867 4.60328 7373 ft 281 kts
2026-04-28 14:36 50.56803 4.59754 8298 ft 289 kts 339°
2026-04-28 14:37 50.58482 4.57903 9017 ft 300 kts 309°
2026-04-28 14:37 50.59467 4.55022 9950 ft 302 kts 283°
2026-04-28 14:37 50.59747 4.51695 10445 ft 317 kts 270°
2026-04-28 14:37 50.59720 4.48218 10981 ft 329 kts 266°
2026-04-28 14:38 50.59633 4.44515 11439 ft 345 kts 266°
2026-04-28 14:38 50.59552 4.40640 12069 ft 354 kts 266°
2026-04-28 14:38 50.59496 4.36697 12761 ft 364 kts 267°
2026-04-28 14:38 50.59480 4.32703 13761 ft 362 kts 269°
2026-04-28 14:39 50.59477 4.28691 14565 ft 368 kts 267°
2026-04-28 14:39 50.59440 4.24670 15551 ft 367 kts 268°
2026-04-28 14:39 50.59399 4.20650 16355 ft 373 kts 265°
2026-04-28 14:39 50.59314 4.16539 17230 ft 375 kts 264°
2026-04-28 14:40 50.59200 4.12435 18091 ft 377 kts 264°
2026-04-28 14:40 50.59106 4.09696 18614 ft 378 kts 264°
2026-04-28 14:40 50.58861 4.04125 19482 ft 384 kts 263°
2026-04-28 14:40 50.58637 3.99901 20104 ft 390 kts 261°
2026-04-28 14:41 50.58382 3.95752 20175 ft 381 kts 260°
2026-04-28 14:41 50.58081 3.91653 20158 ft 373 kts 259°
2026-04-28 14:41 50.57779 3.87631 20158 ft 369 kts 259°
2026-04-28 14:41 50.57635 3.83601 20187 ft 370 kts 271°
2026-04-28 14:42 50.58219 3.79615 20175 ft 376 kts 290°
2026-04-28 14:42 50.59356 3.75839 20185 ft 386 kts 294°
2026-04-28 14:42 50.60580 3.72101 20214 ft 384 kts 295°
2026-04-28 14:42 50.61796 3.68348 20213 ft 382 kts 295°
2026-04-28 14:43 50.62977 3.64651 20148 ft 381 kts 295°
2026-04-28 14:43 50.64176 3.60875 20161 ft 383 kts 294°
2026-04-28 14:43 50.65353 3.57147 20159 ft 386 kts 294°
2026-04-28 14:43 50.66531 3.53381 20162 ft 382 kts 294°
2026-04-28 14:44 50.67718 3.49599 20169 ft 387 kts 294°
2026-04-28 14:44 50.68910 3.45791 20168 ft 387 kts 294°
2026-04-28 14:44 50.70104 3.41977 20171 ft 388 kts 294°
2026-04-28 14:44 50.71295 3.38160 20170 ft 387 kts 294°
2026-04-28 14:45 50.72468 3.34388 20164 ft 381 kts 294°
2026-04-28 14:45 50.73636 3.30644 20166 ft 379 kts 295°
2026-04-28 14:45 50.74814 3.26868 20196 ft 385 kts 294°
2026-04-28 14:45 50.75995 3.23058 20168 ft 388 kts 294°
2026-04-28 14:46 50.77176 3.19239 20165 ft 384 kts 294°
2026-04-28 14:46 50.78353 3.15434 20173 ft 385 kts 294°
2026-04-28 14:46 50.79511 3.11688 20170 ft 383 kts 294°
2026-04-28 14:46 50.80680 3.07904 20173 ft 383 kts 294°
2026-04-28 14:47 50.81847 3.04115 20177 ft 383 kts 294°
2026-04-28 14:47 50.83014 3.00324 20173 ft 384 kts 294°
2026-04-28 14:47 50.84187 2.96502 20174 ft 387 kts 295°
2026-04-28 14:47 50.85360 2.92673 20173 ft 387 kts 295°
2026-04-28 14:48 50.86542 2.88820 20193 ft 388 kts 295°
2026-04-28 14:48 50.87720 2.84972 20198 ft 387 kts 295°
2026-04-28 14:48 50.88881 2.81163 20197 ft 386 kts 295°
2026-04-28 14:48 50.90051 2.77320 20182 ft 388 kts 295°
2026-04-28 14:49 50.91232 2.73436 20189 ft 392 kts 295°
2026-04-28 14:49 50.92413 2.69548 20185 ft 392 kts 295°
2026-04-28 14:49 50.93579 2.65708 20185 ft 392 kts 295°
2026-04-28 14:49 50.94755 2.61819 20196 ft 389 kts 295°
2026-04-28 14:50 50.95931 2.57930 20197 ft 392 kts 295°
2026-04-28 14:50 50.97108 2.54033 20197 ft 390 kts 295°
2026-04-28 14:50 50.98275 2.50162 20195 ft 389 kts 295°
2026-04-28 14:50 50.99443 2.46276 20198 ft 391 kts 294°
2026-04-28 14:51 51.00614 2.42379 20206 ft 392 kts 295°
2026-04-28 14:51 51.01788 2.38474 20207 ft 389 kts 295°
2026-04-28 14:51 51.02951 2.34584 20215 ft 392 kts 295°
2026-04-28 14:51 51.04123 2.30668 20213 ft 391 kts 295°
2026-04-28 14:52 51.05291 2.26760 20220 ft 392 kts 295°
2026-04-28 14:52 51.06457 2.22851 20219 ft 391 kts 295°
2026-04-28 14:52 51.07621 2.18935 20217 ft 392 kts 295°
2026-04-28 14:52 51.08789 2.14998 20224 ft 394 kts 295°
2026-04-28 14:53 51.09958 2.11061 20220 ft 395 kts 295°
2026-04-28 14:53 51.11127 2.07108 20229 ft 392 kts 295°
2026-04-28 14:53 51.12288 2.03184 20223 ft 393 kts 295°
2026-04-28 14:53 51.13322 1.99223 20161 ft 387 kts 284°
2026-04-28 14:54 51.13749 1.94998 20247 ft 383 kts 270°
2026-04-28 14:54 51.13800 1.90860 20059 ft 366 kts 268°
2026-04-28 14:54 51.13857 1.86846 19710 ft 359 kts 270°
2026-04-28 14:54 51.13992 1.82919 19302 ft 353 kts 272°
2026-04-28 14:55 51.14167 1.79046 18874 ft 349 kts 272°
2026-04-28 14:55 51.14355 1.75217 18421 ft 345 kts 273°
2026-04-28 14:55 51.14545 1.71399 17795 ft 345 kts 272°
2026-04-28 14:55 51.14736 1.67567 17119 ft 348 kts 273°
2026-04-28 14:56 51.14927 1.63719 16466 ft 348 kts 273°
2026-04-28 14:56 51.15117 1.59843 15726 ft 352 kts 273°
2026-04-28 14:56 51.15309 1.55949 14999 ft 355 kts 274°
2026-04-28 14:56 51.15503 1.51985 14248 ft 359 kts 274°
2026-04-28 14:57 51.15693 1.48108 14154 ft 340 kts 274°
2026-04-28 14:57 51.15812 1.45657 14126 ft 328 kts 273°
2026-04-28 14:57 51.16037 1.40968 14075 ft 307 kts 273°
2026-04-28 14:57 51.16191 1.37692 14011 ft 287 kts 273°
2026-04-28 14:58 51.16339 1.34556 13709 ft 283 kts 273°
2026-04-28 14:58 51.16498 1.31448 13423 ft 279 kts 279°
2026-04-28 14:58 51.17233 1.28662 12945 ft 277 kts 315°
2026-04-28 14:58 51.18769 1.27018 12566 ft 262 kts 351°
2026-04-28 14:59 51.20524 1.26883 12189 ft 249 kts 13°
2026-04-28 14:59 51.22247 1.27175 11846 ft 249 kts 10°
2026-04-28 14:59 51.23993 1.27258 11492 ft 252 kts
2026-04-28 14:59 51.25752 1.27137 11152 ft 253 kts
2026-04-28 15:00 51.27510 1.26924 10831 ft 253 kts
2026-04-28 15:00 51.29257 1.26687 10392 ft 257 kts
2026-04-28 15:00 51.31032 1.26437 10269 ft 247 kts
2026-04-28 15:00 51.32719 1.26183 10243 ft 242 kts
2026-04-28 15:01 51.34381 1.26097 10247 ft 233 kts 19°
2026-04-28 15:01 51.35871 1.26874 10307 ft 230 kts 28°
2026-04-28 15:01 51.37357 1.27925 10314 ft 232 kts 30°
2026-04-28 15:01 51.38833 1.28981 10253 ft 233 kts 30°
2026-04-28 15:02 51.40308 1.29996 10264 ft 230 kts 30°
2026-04-28 15:02 51.41781 1.30991 10264 ft 230 kts 29°
2026-04-28 15:02 51.43346 1.31653 10273 ft 239 kts 12°
2026-04-28 15:02 51.45026 1.31683 10272 ft 243 kts
2026-04-28 15:03 51.46712 1.31672 10283 ft 242 kts
2026-04-28 15:03 51.48390 1.31763 10275 ft 241 kts
2026-04-28 15:03 51.50063 1.31910 10279 ft 241 kts 10°
2026-04-28 15:03 51.51751 1.31654 10284 ft 249 kts 352°
2026-04-28 15:04 51.53395 1.30775 10280 ft 254 kts 346°
2026-04-28 15:04 51.55056 1.29844 10281 ft 252 kts 348°
2026-04-28 15:04 51.56606 1.28501 10256 ft 261 kts 319°
2026-04-28 15:04 51.57480 1.25940 10299 ft 268 kts 282°
2026-04-28 15:05 51.57329 1.22972 10314 ft 269 kts 244°
2026-04-28 15:05 51.56324 1.20472 10366 ft 266 kts 227°
2026-04-28 15:05 51.55211 1.18081 10328 ft 270 kts 232°
2026-04-28 15:05 51.54250 1.15481 10276 ft 268 kts 238°
2026-04-28 15:06 51.53448 1.12887 10186 ft 251 kts 241°
2026-04-28 15:06 51.52727 1.10410 10022 ft 239 kts 242°
2026-04-28 15:06 51.52039 1.08017 9821 ft 234 kts 242°
2026-04-28 15:06 51.51360 1.05664 9566 ft 232 kts 241°
2026-04-28 15:07 51.50685 1.03327 9307 ft 230 kts 241°
2026-04-28 15:07 51.50022 1.01021 8981 ft 231 kts 242°
2026-04-28 15:07 51.49345 0.98655 8649 ft 234 kts 243°
2026-04-28 15:07 51.48672 0.96277 8358 ft 235 kts 243°
2026-04-28 15:08 51.47994 0.93862 7999 ft 239 kts 243°
2026-04-28 15:08 51.47452 0.91327 7596 ft 245 kts 263°
2026-04-28 15:08 51.47418 0.88578 7192 ft 249 kts 277°
2026-04-28 15:08 51.47609 0.85787 6813 ft 254 kts 279°
2026-04-28 15:09 51.47800 0.82935 6263 ft 265 kts 278°
2026-04-28 15:09 51.47951 0.79965 6042 ft 261 kts 276°
2026-04-28 15:09 51.48060 0.77101 5998 ft 255 kts 276°
2026-04-28 15:09 51.48131 0.75223 5979 ft 254 kts 276°
2026-04-28 15:10 51.48273 0.71417 5874 ft 256 kts 276°
2026-04-28 15:10 51.48380 0.68559 5760 ft 257 kts 276°
2026-04-28 15:10 51.48484 0.65694 5608 ft 256 kts 276°
2026-04-28 15:10 51.48587 0.62854 5517 ft 253 kts 276°
2026-04-28 15:11 51.48688 0.60070 5381 ft 253 kts 276°
2026-04-28 15:11 51.48790 0.57250 5213 ft 254 kts 276°
2026-04-28 15:11 51.48893 0.54413 4940 ft 255 kts 276°
2026-04-28 15:11 51.48991 0.51573 4687 ft 253 kts 276°
2026-04-28 15:12 51.49089 0.48771 4493 ft 250 kts 276°
2026-04-28 15:12 51.48936 0.46013 4227 ft 251 kts 253°
2026-04-28 15:12 51.48226 0.43472 4042 ft 248 kts 239°
2026-04-28 15:12 51.47276 0.41169 3890 ft 245 kts 234°
2026-04-28 15:13 51.46308 0.38937 3740 ft 244 kts 236°
2026-04-28 15:13 51.45397 0.36691 3619 ft 244 kts 238°
2026-04-28 15:13 51.44518 0.34337 3481 ft 244 kts 240°
2026-04-28 15:13 51.43683 0.32007 3450 ft 234 kts 241°
2026-04-28 15:14 51.43030 0.29680 3169 ft 227 kts 260°
2026-04-28 15:14 51.42895 0.27333 3277 ft 200 kts 278°
2026-04-28 15:14 51.43046 0.25138 3240 ft 199 kts 287°
2026-04-28 15:14 51.43283 0.22943 3250 ft 198 kts 286°
2026-04-28 15:15 51.43442 0.20837 3307 ft 189 kts 282°
2026-04-28 15:15 51.43504 0.19423 2987 ft 194 kts 278°
2026-04-28 15:15 51.43523 0.16751 2918 ft 166 kts 276°
2026-04-28 15:15 51.43526 0.14955 2852 ft 159 kts 279°
2026-04-28 15:16 51.43566 0.13166 2852 ft 162 kts 281°
2026-04-28 15:16 51.43649 0.11345 2800 ft 166 kts 282°
2026-04-28 15:16 51.43733 0.09483 2639 ft 168 kts 282°
2026-04-28 15:16 51.43781 0.08250 2498 ft 165 kts 281°
2026-04-28 15:17 51.43847 0.05886 2346 ft 156 kts 279°
2026-04-28 15:17 51.43894 0.04134 2327 ft 159 kts 280°
2026-04-28 15:17 51.43954 0.02371 2287 ft 158 kts 281°
2026-04-28 15:17 51.44013 0.00614 2257 ft 156 kts 281°
2026-04-28 15:18 51.44052 -0.00562 2270 ft 158 kts 279°
2026-04-28 15:18 51.44102 -0.02335 2256 ft 160 kts 279°
2026-04-28 15:18 51.44147 -0.04124 2290 ft 161 kts 279°
2026-04-28 15:18 51.44202 -0.05921 2273 ft 161 kts 279°
2026-04-28 15:19 51.44274 -0.07695 2257 ft 158 kts 281°
2026-04-28 15:19 51.44402 -0.09335 2434 ft 144 kts 295°
2026-04-28 15:19 51.44955 -0.10630 2164 ft 132 kts 336°
2026-04-28 15:19 51.45709 -0.11025 2153 ft 110 kts
2026-04-28 15:20 51.46473 -0.11193 2238 ft 113 kts
2026-04-28 15:20 51.47269 -0.11368 2289 ft 119 kts
2026-04-28 15:20 51.48081 -0.11631 2217 ft 118 kts 356°
2026-04-28 15:20 51.48866 -0.11651 2255 ft 111 kts 20°
2026-04-28 15:21 51.49504 -0.11021 2258 ft 110 kts 48°
2026-04-28 15:21 51.49817 -0.09941 2294 ft 111 kts 66°
2026-04-28 15:21 51.50144 -0.08853 2273 ft 108 kts 58°
2026-04-28 15:21 51.50481 -0.07794 2282 ft 106 kts 61°
2026-04-28 15:22 51.50791 -0.06727 2260 ft 106 kts 62°
2026-04-28 15:22 51.50850 -0.05521 2322 ft 113 kts 86°
2026-04-28 15:22 51.50800 -0.04204 2021 ft 122 kts 83°
2026-04-28 15:22 51.50786 -0.02912 1718 ft 110 kts 83°
2026-04-28 15:23 51.50741 -0.01729 1446 ft 105 kts 85°
2026-04-28 15:23 51.50686 -0.00578 1196 ft 102 kts 85°
2026-04-28 15:23 51.50646 0.00640 877 ft 112 kts 81°
2026-04-28 15:23 51.50619 0.01946 636 ft 120 kts 85°
2026-04-28 15:24 51.50586 0.03283 329 ft 122 kts 87°
2026-04-28 15:24 51.50541 0.04635 46 ft 117 kts 85°
2026-04-28 15:24 51.50518 0.05736 28 ft 77 kts 93°
2026-04-28 15:24 51.50500 0.06254 24 ft 17 kts 91°
2026-04-28 15:25 51.50488 0.06303 26 ft 8 kts 128°
2026-04-28 15:25 51.50448 0.06343 24 ft 6 kts 160°
2026-04-28 15:25 51.50421 0.06315 24 ft 4 kts 254°
2026-04-28 15:26 51.50423 0.06254 24 ft 8 kts 274°
2026-04-28 15:26 51.50428 0.06129 24 ft 13 kts 272°
2026-04-28 15:26 51.50424 0.05962 24 ft 17 kts 264°
2026-04-28 15:26 51.50429 0.05840 24 ft 6 kts 285°
2026-04-28 15:27 51.50431 0.05759 24 ft 10 kts 272°
2026-04-28 15:27 51.50435 0.05651 24 ft 5 kts 272°
2026-04-28 15:27 51.50435 0.05617 24 ft 0 kts 272°
2026-04-28 15:28 51.50435 0.05612 24 ft 0 kts 271°
2026-04-28 15:28 51.50435 0.05610 24 ft 0 kts 262°
2026-04-28 15:28 51.50428 0.05606 25 ft 4 kts 207°
2026-04-28 15:28 51.50396 0.05598 26 ft 3 kts 192°
2026-04-28 15:29 51.50390 0.05581 25 ft 3 kts 256°
2026-04-28 15:29 51.50395 0.05562 24 ft 2 kts 294°
2026-04-28 15:29 51.50401 0.05554 24 ft 0 kts 322°
2026-04-28 15:29 51.50402 0.05554 24 ft 1 kts 327°
2026-04-28 15:30 51.50403 0.05552 24 ft 0 kts 327°
2026-04-28 15:31 51.50403 0.05553 24 ft 0 kts 327°